When you browse on this site, cookies collect data to enhance your experience and personalize the content and advertising you see.
Visit our Privacy Policy to learn more. By continuing to use the site, you agree to this use of cookies and data.
  • In Germany
  • List of Countries
  • For 7 days
  • Water Temperature
  • Weather Map
  • Weather Widgets
  • user-avatar
    Login

    Hourly Weather Quito

    Today, 9 December, Monday

    Time Temperature Precipitation Wind Pressure Humidity
    00:00 +19°C° 0.3 mm 1 mps 621 mmHg 92%
    01:00 +18°C° 0 mm 1 mps 620 mmHg 93%
    02:00 +18°C° 0.4 mm 1 mps 620 mmHg 94%
    03:00 +18°C° 0.4 mm 1 mps 620 mmHg 95%
    04:00 +16°C° 0.4 mm 0 mps 620 mmHg 95%
    05:00 +16°C° 0.1 mm 0 mps 620 mmHg 95%
    06:00 +17°C° 0.1 mm 0 mps 621 mmHg 94%
    07:00 +17°C° 0 mm 0 mps 622 mmHg 92%
    08:00 +19°C° 0.7 mm 0 mps 622 mmHg 87%
    09:00 +22°C° 0.7 mm 1 mps 623 mmHg 82%
    10:00 +23°C° 0.7 mm 1 mps 623 mmHg 77%
    11:00 +24°C° 1.3 mm 1 mps 623 mmHg 76%
    12:00 +24°C° 1.3 mm 1 mps 622 mmHg 76%
    13:00 +23°C° 0 mm 0 mps 622 mmHg 73%
    14:00 +24°C° 1.4 mm 1 mps 621 mmHg 76%
    15:00 +24°C° 1.4 mm 1 mps 620 mmHg 79%
    16:00 +23°C° 1.4 mm 1 mps 620 mmHg 82%
    17:00 +22°C° 0.7 mm 1 mps 620 mmHg 84%
    18:00 +20°C° 0.7 mm 1 mps 620 mmHg 86%
    19:00 +17°C° 0.7 mm 0 mps 620 mmHg 88%
    20:00 +19°C° 0.1 mm 1 mps 621 mmHg 88%
    21:00 +18°C° 0.1 mm 1 mps 621 mmHg 88%
    22:00 +18°C° 0.1 mm 1 mps 621 mmHg 88%
    23:00 +18°C° 0.1 mm 1 mps 621 mmHg 90%

    Tomorrow, 10 December, Tuesday

    Time Temperature Precipitation Wind Pressure Humidity
    00:00 +16°C° 0.1 mm 2 mps 621 mmHg 91%
    01:00 +16°C° 0.1 mm 2 mps 620 mmHg 93%
    02:00 +16°C° 0 mm 2 mps 620 mmHg 93%
    03:00 +15°C° 0 mm 2 mps 620 mmHg 92%
    04:00 +15°C° 0 mm 2 mps 619 mmHg 92%
    05:00 +15°C° 0 mm 2 mps 620 mmHg 90%
    06:00 +16°C° 0 mm 2 mps 621 mmHg 88%
    07:00 +18°C° 0 mm 1 mps 621 mmHg 85%
    08:00 +21°C° 0 mm 1 mps 622 mmHg 76%
    09:00 +23°C° 0 mm 1 mps 623 mmHg 66%
    10:00 +26°C° 0 mm 1 mps 624 mmHg 56%
    11:00 +27°C° 0 mm 1 mps 623 mmHg 54%
    12:00 +27°C° 0 mm 1 mps 623 mmHg 52%
    13:00 +27°C° 0 mm 1 mps 623 mmHg 50%
    14:00 +27°C° 0.2 mm 1 mps 622 mmHg 55%
    15:00 +26°C° 0.2 mm 1 mps 621 mmHg 61%
    16:00 +25°C° 0.2 mm 1 mps 621 mmHg 66%
    17:00 +23°C° 0.2 mm 1 mps 620 mmHg 71%
    18:00 +21°C° 0.2 mm 1 mps 620 mmHg 77%
    19:00 +19°C° 0.2 mm 1 mps 620 mmHg 82%
    20:00 +19°C° 0 mm 1 mps 621 mmHg 83%
    21:00 +18°C° 0 mm 1 mps 621 mmHg 83%
    22:00 +16°C° 0 mm 1 mps 621 mmHg 84%
    23:00 +16°C° 0 mm 1 mps 621 mmHg 84%

    Day after tomorrow, 11 December, Wednesday

    Time Temperature Precipitation Wind Pressure Humidity
    00:00 +15°C° 0 mm 1 mps 620 mmHg 85%
    01:00 +14°C° 0 mm 1 mps 620 mmHg 86%
    02:00 +14°C° 0 mm 1 mps 620 mmHg 85%
    03:00 +13°C° 0 mm 1 mps 619 mmHg 85%
    04:00 +13°C° 0 mm 1 mps 619 mmHg 84%
    05:00 +14°C° 0 mm 1 mps 620 mmHg 81%
    06:00 +15°C° 0 mm 1 mps 621 mmHg 78%
    07:00 +18°C° 0 mm 1 mps 622 mmHg 74%
    08:00 +20°C° 0 mm 1 mps 622 mmHg 66%
    09:00 +23°C° 0 mm 1 mps 623 mmHg 57%
    10:00 +26°C° 0 mm 1 mps 624 mmHg 49%
    11:00 +27°C° 0 mm 1 mps 624 mmHg 46%
    12:00 +28°C° 0 mm 1 mps 623 mmHg 42%
    13:00 +29°C° 0 mm 1 mps 623 mmHg 39%
    14:00 +28°C° 0 mm 1 mps 623 mmHg 42%
    15:00 +27°C° 0 mm 1 mps 622 mmHg 45%
    16:00 +26°C° 0 mm 2 mps 621 mmHg 49%
    17:00 +24°C° 0 mm 2 mps 621 mmHg 54%
    18:00 +22°C° 0 mm 1 mps 621 mmHg 60%
    19:00 +20°C° 0 mm 1 mps 621 mmHg 65%
    20:00 +19°C° 0 mm 1 mps 621 mmHg 62%
    21:00 +17°C° 0 mm 2 mps 621 mmHg 59%
    22:00 +17°C° 0 mm 2 mps 622 mmHg 56%
    23:00 +16°C° 0 mm 2 mps 621 mmHg 61%

    12 December, Thursday

    Time Temperature Precipitation Wind Pressure Humidity
    00:00 +16°C° 0 mm 2 mps 621 mmHg 65%
    01:00 +15°C° 0 mm 2 mps 620 mmHg 70%
    02:00 +15°C° 0 mm 2 mps 620 mmHg 71%
    03:00 +14°C° 0 mm 1 mps 620 mmHg 72%
    04:00 +14°C° 0 mm 1 mps 620 mmHg 73%
    05:00 +15°C° 0 mm 1 mps 620 mmHg 73%
    06:00 +16°C° 0 mm 2 mps 621 mmHg 72%
    07:00 +17°C° 0 mm 2 mps 622 mmHg 71%
    08:00 +19°C° 0 mm 2 mps 622 mmHg 65%
    09:00 +23°C° 0 mm 1 mps 623 mmHg 58%
    10:00 +26°C° 0 mm 1 mps 624 mmHg 52%
    11:00 +26°C° 0 mm 2 mps 623 mmHg 50%
    12:00 +27°C° 0 mm 2 mps 623 mmHg 48%
    13:00 +27°C° 0 mm 2 mps 623 mmHg 46%
    14:00 +27°C° 0 mm 2 mps 622 mmHg 48%
    15:00 +27°C° 0 mm 2 mps 622 mmHg 50%
    16:00 +26°C° 0 mm 1 mps 622 mmHg 52%
    17:00 +24°C° 0 mm 1 mps 622 mmHg 59%
    18:00 +22°C° 0 mm 1 mps 621 mmHg 67%
    19:00 +20°C° 0 mm 1 mps 621 mmHg 74%
    20:00 +18°C° 0 mm 2 mps 621 mmHg 79%
    21:00 +17°C° 0 mm 2 mps 622 mmHg 83%
    22:00 +17°C° 0 mm 3 mps 622 mmHg 88%
    23:00 +16°C° 0 mm 3 mps 622 mmHg 88%

    13 December, Friday

    Time Temperature Precipitation Wind Pressure Humidity
    00:00 +16°C° 0 mm 3 mps 622 mmHg 88%
    01:00 +16°C° 0 mm 3 mps 621 mmHg 88%
    02:00 +16°C° 0 mm 2 mps 621 mmHg 90%
    03:00 +15°C° 0 mm 2 mps 621 mmHg 92%
    04:00 +14°C° 0 mm 2 mps 620 mmHg 94%
    05:00 +15°C° 0 mm 2 mps 621 mmHg 90%
    06:00 +16°C° 0 mm 1 mps 622 mmHg 87%
    07:00 +18°C° 0 mm 1 mps 623 mmHg 83%
    08:00 +20°C° 0 mm 2 mps 623 mmHg 75%
    09:00 +23°C° 0 mm 2 mps 624 mmHg 66%
    10:00 +25°C° 0 mm 2 mps 624 mmHg 58%
    11:00 +26°C° 0.2 mm 2 mps 624 mmHg 55%
    12:00 +27°C° 0.2 mm 2 mps 623 mmHg 52%
    13:00 +27°C° 0.2 mm 2 mps 623 mmHg 50%
    14:00 +27°C° 0.2 mm 2 mps 623 mmHg 54%
    15:00 +26°C° 0.2 mm 1 mps 622 mmHg 58%
    16:00 +26°C° 0.2 mm 1 mps 621 mmHg 62%
    17:00 +24°C° 0.2 mm 1 mps 621 mmHg 70%
    18:00 +21°C° 0.2 mm 1 mps 621 mmHg 78%
    19:00 +18°C° 0.2 mm 2 mps 621 mmHg 86%
    20:00 +18°C° 0.7 mm 2 mps 621 mmHg 88%
    21:00 +17°C° 0.7 mm 2 mps 621 mmHg 90%
    22:00 +17°C° 0.7 mm 2 mps 622 mmHg 92%
    23:00 +17°C° 1.5 mm 2 mps 622 mmHg 93%

    14 December, Saturday

    Time Temperature Precipitation Wind Pressure Humidity
    00:00 +17°C° 1.5 mm 2 mps 621 mmHg 94%
    01:00 +17°C° 1.5 mm 2 mps 621 mmHg 95%
    02:00 +16°C° 0.7 mm 2 mps 621 mmHg 94%
    03:00 +16°C° 0.7 mm 1 mps 621 mmHg 93%
    04:00 +16°C° 0.7 mm 1 mps 620 mmHg 91%
    05:00 +16°C° 0 mm 1 mps 621 mmHg 90%
    06:00 +18°C° 0 mm 1 mps 622 mmHg 89%
    07:00 +19°C° 0 mm 1 mps 622 mmHg 88%
    08:00 +20°C° 0.4 mm 1 mps 623 mmHg 83%
    09:00 +22°C° 0.4 mm 1 mps 624 mmHg 78%
    10:00 +24°C° 0.4 mm 1 mps 624 mmHg 72%
    11:00 +24°C° 1 mm 1 mps 624 mmHg 72%
    12:00 +24°C° 1 mm 1 mps 623 mmHg 71%
    13:00 +24°C° 1 mm 2 mps 623 mmHg 71%
    14:00 +24°C° 0.9 mm 1 mps 622 mmHg 73%
    15:00 +24°C° 0.9 mm 1 mps 622 mmHg 74%
    16:00 +24°C° 0.9 mm 1 mps 621 mmHg 76%
    17:00 +22°C° 0.9 mm 1 mps 621 mmHg 80%
    18:00 +21°C° 0.9 mm 1 mps 621 mmHg 83%
    19:00 +19°C° 0.9 mm 1 mps 621 mmHg 87%
    20:00 +19°C° 0.6 mm 1 mps 621 mmHg 89%
    21:00 +19°C° 0.6 mm 1 mps 622 mmHg 90%
    22:00 +18°C° 0.6 mm 1 mps 622 mmHg 92%
    23:00 +18°C° 0.9 mm 1 mps 622 mmHg 93%
    Show more